Wahpeton, MN

12:44 AM CDT on October 23, 2019 (GMT -0500)
Stern

Weather History for KBWP - August, 2019

Change the Weather History Date:

Saturday, August 24, 2019

  Actual Average (WUND) Record (WUND)
Temperature  
Mean Temperature 68 °F -  
Max Temperature 77 °F - - (-1)
Min Temperature 59 °F - - (-1)
Cooling Degree Days 3    
Growing Degree Days 18 (Base 50)    
Moisture  
Dew Point 56 °F    
Average Humidity 69    
Maximum Humidity 88    
Minimum Humidity 47    
Precipitation  
Precipitation 0.00 in - - ()
Sea Level Pressure  
Sea Level Pressure 30.07 in    
Wind  
Wind Speed 12 mph ()    
Max Wind Speed 24 mph    
Max Gust Speed 31 mph    
Visibility 9.9 miles    
Events      
Averages and records for this station are not official NWS values.
T = Trace of Precipitation, MM = Missing Value Source: Averaged Metar Reports

Daily Weather History Graph

Daily Weather History Graph

Search for Another Location

Airport or City:

Astronomy

Aug. 24, 2019 Rise Set
Actual Time 6:36 AM CDT 8:20 PM CDT
Civil Twilight 6:04 AM CDT 8:51 PM CDT
Nautical Twilight 5:25 AM CDT 9:30 PM CDT
Astronomical Twilight 4:43 AM CDT 10:12 PM CDT
Moon 12:23 AM CDT (8/24) 3:46 PM CDT (8/24)
Length of Visible Light 14h 47m
Length of Day
13h 43m
Last Quarter, 39% of the Moon is Illuminated
Aug 24
Last Quarter
Aug 30
New
Sep 5
First Quarter
Sep 13
Full
Sep 21
Last Quarter

Hourly Weather History & Observations

Time (CDT) Temp. Dew Point Humidity Pressure Visibility Wind Dir Wind Speed Gust Speed Precip Events Conditions
12:15 AM 60.8 °F 55.4 °F 82% 30.13 in 10.0 mi SE 9.2 mph - N/A   Unknown
12:35 AM 60.8 °F 55.4 °F 82% 30.12 in 10.0 mi SE 8.1 mph - N/A   Unknown
12:55 AM 60.8 °F 55.4 °F 82% 30.12 in 10.0 mi SE 9.2 mph - N/A   Unknown
1:35 AM 60.8 °F 55.4 °F 82% 30.13 in 10.0 mi SE 9.2 mph - N/A   Unknown
1:55 AM 60.8 °F 55.4 °F 82% 30.12 in 10.0 mi SE 10.4 mph - N/A   Unknown
2:15 AM 60.8 °F 55.4 °F 82% 30.12 in 10.0 mi SE 10.4 mph - N/A   Unknown
2:35 AM 60.8 °F 55.4 °F 82% 30.13 in 10.0 mi SSE 9.2 mph - N/A   Unknown
2:55 AM 59.0 °F 55.4 °F 88% 30.13 in 10.0 mi SE 8.1 mph - N/A   Unknown
3:15 AM 59.0 °F 55.4 °F 88% 30.13 in 10.0 mi SE 8.1 mph - N/A   Unknown
3:35 AM 59.0 °F 55.4 °F 88% 30.13 in 10.0 mi SE 8.1 mph - N/A   Unknown
3:55 AM 59.0 °F 55.4 °F 88% 30.12 in 10.0 mi SE 8.1 mph - N/A   Unknown
4:15 AM 59.0 °F 55.4 °F 88% 30.12 in 10.0 mi SE 8.1 mph - N/A   Unknown
4:35 AM 59.0 °F 55.4 °F 88% 30.12 in 10.0 mi SE 8.1 mph - N/A   Unknown
4:55 AM 59.0 °F 55.4 °F 88% 30.12 in 10.0 mi SE 9.2 mph - N/A   Unknown
5:15 AM 59.0 °F 55.4 °F 88% 30.12 in 10.0 mi SE 8.1 mph - N/A   Unknown
5:35 AM 59.0 °F 55.4 °F 88% 30.12 in 10.0 mi SE 10.4 mph - N/A   Unknown
5:55 AM 59.0 °F 55.4 °F 88% 30.12 in 10.0 mi SE 9.2 mph - N/A   Unknown
6:15 AM 59.0 °F 55.4 °F 88% 30.13 in 10.0 mi SE 10.4 mph - N/A   Unknown
6:35 AM 59.0 °F 55.4 °F 88% 30.12 in 10.0 mi SE 10.4 mph - N/A   Unknown
6:55 AM 59.0 °F 55.4 °F 88% 30.12 in 10.0 mi SE 11.5 mph - N/A   Unknown
7:15 AM 59.0 °F 55.4 °F 88% 30.12 in 10.0 mi SE 12.7 mph - N/A   Unknown
7:35 AM 59.0 °F 55.4 °F 88% 30.11 in 10.0 mi SE 13.8 mph 17.3 mph N/A   Unknown
7:55 AM 60.8 °F 55.4 °F 82% 30.11 in 10.0 mi SE 12.7 mph - N/A   Unknown
8:15 AM 60.8 °F 55.4 °F 82% 30.11 in 10.0 mi SE 15.0 mph - N/A   Unknown
8:35 AM 62.6 °F 55.4 °F 77% 30.10 in 10.0 mi SE 16.1 mph 19.6 mph N/A   Unknown
8:55 AM 64.4 °F 55.4 °F 73% 30.11 in 10.0 mi SSE 12.7 mph 19.6 mph N/A   Unknown
9:15 AM 64.4 °F 55.4 °F 73% 30.10 in 10.0 mi SSE 16.1 mph 23.0 mph N/A   Unknown
9:55 AM 68.0 °F 55.4 °F 64% 30.09 in 10.0 mi SSE 18.4 mph 24.2 mph N/A   Unknown
10:15 AM 69.8 °F 55.4 °F 60% 30.10 in 10.0 mi SSE 17.3 mph 23.0 mph N/A   Unknown
10:35 AM 71.6 °F 55.4 °F 57% 30.10 in 10.0 mi South 20.7 mph 24.2 mph N/A   Unknown
10:55 AM 71.6 °F 55.4 °F 57% 30.09 in 10.0 mi SSE 20.7 mph 26.5 mph N/A   Unknown
11:15 AM 71.6 °F 55.4 °F 57% 30.09 in 10.0 mi South 20.7 mph 25.3 mph N/A   Unknown
11:35 AM 73.4 °F 57.2 °F 57% 30.09 in 10.0 mi SSE 19.6 mph 25.3 mph N/A   Unknown
11:55 AM 73.4 °F 57.2 °F 57% 30.08 in 10.0 mi SSE 18.4 mph 26.5 mph N/A   Unknown
12:15 PM 73.4 °F 57.2 °F 57% 30.06 in 10.0 mi SE 19.6 mph 24.2 mph N/A   Unknown
12:35 PM 75.2 °F 59.0 °F 57% 30.06 in 10.0 mi SE 19.6 mph 28.8 mph N/A   Unknown
12:55 PM 75.2 °F 59.0 °F 57% 30.05 in 10.0 mi SSE 24.2 mph 29.9 mph N/A   Unknown
1:15 PM 77.0 °F 59.0 °F 54% 30.05 in 10.0 mi SSE 20.7 mph 27.6 mph N/A   Unknown
1:35 PM 77.0 °F 59.0 °F 54% 30.04 in 10.0 mi SE 19.6 mph 27.6 mph N/A   Unknown
1:55 PM 77.0 °F 57.2 °F 50% 30.04 in 10.0 mi SSE 23.0 mph 29.9 mph N/A   Clear
2:15 PM 77.0 °F 57.2 °F 50% 30.05 in 10.0 mi SSE 21.9 mph 29.9 mph N/A   Clear
2:35 PM 77.0 °F 59.0 °F 54% 30.04 in 7.0 mi SSE 21.9 mph 27.6 mph N/A   Scattered Clouds
2:55 PM 77.0 °F 59.0 °F 54% 30.04 in 7.0 mi SSE 23.0 mph 27.6 mph N/A   Scattered Clouds
3:15 PM 77.0 °F 59.0 °F 54% 30.04 in 10.0 mi SSE 19.6 mph 29.9 mph N/A   Unknown
3:35 PM 77.0 °F 59.0 °F 54% 30.03 in 10.0 mi SSE 20.7 mph 28.8 mph N/A   Clear
3:55 PM 77.0 °F 59.0 °F 54% 30.03 in 10.0 mi SSE 23.0 mph 29.9 mph N/A   Scattered Clouds
4:15 PM 77.0 °F 57.2 °F 50% 30.03 in 10.0 mi SSE 17.3 mph 20.7 mph N/A   Unknown
4:35 PM 77.0 °F 55.4 °F 47% 30.03 in 10.0 mi SSE 23.0 mph 28.8 mph N/A   Unknown
4:55 PM 77.0 °F 55.4 °F 47% 30.03 in 10.0 mi SSE 24.2 mph 31.1 mph N/A   Unknown
5:15 PM 77.0 °F 55.4 °F 47% 30.03 in 10.0 mi SSE 20.7 mph 28.8 mph N/A   Clear
5:35 PM 75.2 °F 55.4 °F 50% 30.03 in 10.0 mi SSE 20.7 mph 27.6 mph N/A   Clear
5:55 PM 73.4 °F 55.4 °F 53% 30.03 in 10.0 mi SSE 17.3 mph 24.2 mph N/A   Unknown
6:15 PM 73.4 °F 53.6 °F 50% 30.03 in 10.0 mi SSE 20.7 mph 26.5 mph N/A   Unknown
6:55 PM 71.6 °F 55.4 °F 57% 30.02 in 10.0 mi SSE 15.0 mph 18.4 mph N/A   Unknown
7:15 PM 71.6 °F 53.6 °F 53% 30.02 in 10.0 mi SE 17.3 mph 21.9 mph N/A   Unknown
7:35 PM 69.8 °F 53.6 °F 56% 30.02 in 10.0 mi SE 15.0 mph 25.3 mph N/A   Unknown
7:55 PM 69.8 °F 53.6 °F 56% 30.01 in 10.0 mi SE 16.1 mph 21.9 mph N/A   Unknown
8:15 PM 68.0 °F 51.8 °F 56% 30.01 in 10.0 mi SE 15.0 mph 26.5 mph N/A   Unknown
8:35 PM 68.0 °F 51.8 °F 56% 30.01 in 10.0 mi SE 13.8 mph 20.7 mph N/A   Unknown
8:55 PM 66.2 °F 53.6 °F 64% 30.01 in 10.0 mi SE 13.8 mph 19.6 mph N/A   Unknown
9:15 PM 64.4 °F 53.6 °F 68% 30.01 in 10.0 mi SE 12.7 mph - N/A   Unknown
9:35 PM 64.4 °F 53.6 °F 68% 30.01 in 10.0 mi SE 15.0 mph - N/A   Unknown
9:55 PM 64.4 °F 53.6 °F 68% 30.01 in 10.0 mi SE 11.5 mph - N/A   Unknown
10:15 PM 62.6 °F 53.6 °F 72% 30.01 in 10.0 mi SE 12.7 mph 18.4 mph N/A   Unknown
10:35 PM 62.6 °F 53.6 °F 72% 30.00 in 10.0 mi SE 13.8 mph 19.6 mph N/A   Unknown
10:55 PM 62.6 °F 53.6 °F 72% 30.00 in 10.0 mi SE 12.7 mph 17.3 mph N/A   Unknown
11:15 PM 60.8 °F 53.6 °F 77% 30.00 in 10.0 mi SE 11.5 mph - N/A   Unknown
11:35 PM 60.8 °F 53.6 °F 77% 29.99 in 10.0 mi SSE 13.8 mph - N/A   Unknown
11:55 PM 60.8 °F 53.6 °F 77% 29.99 in 10.0 mi SSE 13.8 mph 19.6 mph N/A   Unknown